Location: Unspecified
(12.6500°N, 0.0000°E)
Time: 07:37:40
(UTC+00:00)

Envisat - Visible Passes

Search period start: 23 May 2019 00:00
Search period end: 02 June 2019 00:00
Orbit: 764 x 766 km, 98.2° (Epoch: 23 May)

Date Brightness Start Highest point End Pass type
(mag) Time Alt. Az. Time Alt. Az. Time Alt. Az.
24 May 5.1 19:33:05 10° SSW 19:37:13 26° W 19:41:23 10° NW visible
25 May 3.3 18:55:27 10° S 19:00:30 72° WSW 19:05:34 10° NNW visible
26 May 5.8 20:00:48 10° WSW 20:02:45 12° W 20:04:43 10° WNW visible
27 May 4.6 19:21:26 10° SSW 19:26:00 34° W 19:30:34 10° NW visible
28 May 3.0 18:44:14 10° SSE 18:49:18 84° ENE 18:54:22 10° N visible
29 May 5.6 19:48:20 10° SW 19:51:31 17° W 19:54:43 10° WNW visible
30 May 4.0 19:09:56 10° S 19:14:46 47° W 19:19:38 10° NNW visible
01 Jun 5.2 19:36:21 10° SSW 19:40:17 23° W 19:44:13 10° NW visible
